[[{"header":{"parameterUnit":"m.s-1","parameterCategory":1,"la1":30.2991,"la2":30.254,"lo1":-89.0895,"lo2":-89.0444,"dy":0.0017,"dx":0.0017,"nx":28,"ny":28,"refTime":"2024-05-15T09:00:00:Z","depth":0,"parameterNumber":2,"parameterNumberName":"U-component_of_WINDS"},"data":[0,0,0,0,0,0,0,0,0,0,0,0,0,0,0,0,0,0,0,0,0,0,0,0,0,0,0,0,0,0,0,0,0,0,0,0,0,0,0,0,0,0,0,0,0,0,0,0,0,0,0,0,0,0,0,0,0,0,2.2247,2.2248,0,2.229,2.229,2.2291,2.2286,2.2286,2.2285,2.2285,2.233,2.2332,2.2334,0,0,0,0,0,0,0,0,0,0,0,0,0,2.2168,2.217,2.2247,2.2248,2.2248,2.2289,2.229,2.2291,2.2287,2.2286,2.2285,2.2284,2.233,2.2332,2.2334,0,0,0,0,0,0,0,0,0,0,0,0,0,2.2206,2.217,2.2247,2.2251,2.2252,2.2289,2.229,2.2291,2.2287,2.2286,2.2285,2.2284,2.2329,2.2332,2.2334,2.2371,0,0,2.2343,2.2344,0,0,0,0,0,0,0,0,2.2204,2.2209,2.225,2.2251,2.2252,2.2282,2.2279,2.2318,2.2287,2.2274,2.2285,2.2283,2.2315,2.2319,2.2329,2.2373,2.2375,2.2343,2.2345,2.2346,2.2347,0,0,0,0,0,0,0,2.2201,2.2207,2.2264,2.2251,2.2252,2.2253,2.2257,2.2286,2.2299,2.2275,2.2275,2.2279,2.2315,2.2326,2.233,2.2376,2.2343,2.2345,2.2347,2.2348,2.2458,2.2459,0,0,0,0,0,0,2.2197,2.2205,2.2263,2.2265,2.2225,2.2255,2.226,2.2273,2.2299,2.2302,2.228,2.2279,2.2322,2.2327,2.2332,2.238,2.2346,2.2348,2.235,2.2457,2.2459,2.246,0,0,0,0,0,0,2.2195,2.2202,2.2261,2.2235,2.2243,2.2257,2.2273,2.2275,2.2285,2.2303,2.2306,2.2289,2.2322,2.2328,2.2362,2.2382,2.235,2.2352,2.2455,2.2457,2.2459,2.2475,0,0,0,0,0,0,2.2193,2.2201,2.2214,2.2235,2.2244,2.2289,2.2274,2.2276,2.229,2.2289,2.2312,2.2315,2.2321,2.2358,2.2365,2.2385,2.2354,2.2454,2.2456,2.2459,2.2473,2.2477,2.2481,0,0,0,0,0,2.219,2.2216,2.2215,2.2222,2.226,2.229,2.2295,2.2302,2.2291,2.2306,2.2318,2.2314,2.2378,2.2362,2.2369,2.239,2.2453,2.2456,2.2458,2.2471,2.2477,2.2481,0,0,0,0,0,0,2.2197,2.2219,2.2217,2.2251,2.2269,2.2289,2.2307,2.2306,2.2328,2.2326,2.2334,2.2339,2.2375,2.2386,2.2367,2.243,2.2414,2.2419,2.2422,2.2427,2.2431,2.2428,2.2356,0,0,0,0,0,2.2202,2.2224,2.2242,2.227,2.2279,2.2292,2.2305,2.2309,2.2328,2.2336,2.235,2.237,2.2395,2.2411,2.2435,2.2475,2.2482,2.2493,2.2497,2.25,2.2505,2.2532,2.2538,2.2469,2.2469,2.2469,0,0,2.2213,2.2228,2.2241,2.2272,2.2286,2.2311,2.2298,2.2323,2.2343,2.234,2.2374,2.2386,2.2409,2.2447,2.2465,2.2458,2.2526,2.2504,2.2506,2.2509,2.2535,2.2542,2.2548,2.2471,2.2471,2.2471,0,0,2.2246,2.2258,2.2285,2.23,2.2322,2.2331,2.2338,2.236,2.2368,2.2402,2.2402,2.2426,2.2467,2.2485,2.25,2.2545,2.2544,2.2552,2.2574,2.26,2.2606,2.2611,2.263,2.2637,2.2556,2.2556,2.2556,0,2.2258,2.2293,2.2299,2.2326,2.2341,2.234,2.2369,2.2384,2.2413,2.2425,2.2416,2.2472,2.2487,2.2532,2.2543,2.2554,2.2564,2.255,2.2604,2.2609,2.2614,2.2633,2.264,2.2557,2.2557,2.2557,2.2557,0,2.2308,2.2333,2.2352,2.2381,2.2399,2.2426,2.2439,2.2456,2.2459,2.247,2.2508,2.2526,2.2556,2.2567,2.2569,2.2614,2.2609,2.2602,2.2587,2.2621,2.264,2.2647,2.2559,2.2559,2.2558,2.2558,0,0,2.2345,2.2379,2.2386,2.2402,2.2428,2.2448,2.2478,2.2507,2.2524,2.2545,2.2572,2.261,2.2605,2.2621,2.2626,2.2649,2.2689,2.264,2.2641,2.2651,2.2745,2.2751,2.276,2.2688,2.269,2.2691,2.2744,0,2.2383,2.2434,2.2442,2.2488,2.2514,2.2515,2.2542,2.2563,2.2574,2.26,2.2613,2.2641,2.263,2.2641,2.2664,2.2679,2.2708,2.2675,2.2717,2.2718,2.2713,2.2768,2.2775,2.2824,2.2751,2.2752,2.2753,0,2.2434,2.2458,2.2506,2.2533,2.2545,2.2568,2.2598,2.2621,2.2646,2.2653,2.2674,2.2678,2.2712,2.2695,2.2744,2.2722,2.274,2.2751,2.2753,2.2759,2.2739,2.2779,2.2839,2.2848,2.2763,2.2762,2.2762,0,2.246,2.2504,2.254,2.2552,2.2584,2.2601,2.2616,2.2639,2.2658,2.2685,2.2698,2.2728,2.2745,2.277,2.2784,2.2769,2.2834,2.2816,2.2844,2.2844,2.2858,2.2858,2.2926,2.2866,2.2866,2.2865,2.2865,0,2.2503,2.2533,2.2553,2.2575,2.2611,2.2621,2.2657,2.2671,2.2694,2.2721,2.2724,2.2751,2.2765,2.2795,2.2805,2.2848,2.2854,2.2864,2.2867,2.2865,2.2864,2.2878,2.2876,2.2867,2.2867,2.2867,2.2866,0,2.2538,2.2551,2.2592,2.2619,2.2627,2.2653,2.2678,2.2702,2.2715,2.275,2.2759,2.278,2.2815,2.2831,2.2873,2.2881,2.2931,2.2929,2.2922,2.2924,2.2952,2.295,2.3033,2.3046,2.2975,2.2975,2.2976,0,2.2565,2.2589,2.262,2.2639,2.2654,2.2683,2.2703,2.2715,2.2736,2.277,2.2791,2.2826,2.2855,2.2912,2.2933,2.2967,2.2969,2.2996,2.2974,2.2973,2.2974,2.2973,2.2978,2.3,2.3001,2.3001,2.3002,0,2.2613,2.262,2.2647,2.2679,2.2703,2.2728,2.2753,2.2769,2.2786,2.281,2.2846,2.2869,2.2915,2.2952,2.2988,2.3006,2.3009,2.3008,2.3017,2.3017,2.3013,2.3019,2.2936,2.3007,2.3006,2.3006,2.3005,2.3005,2.2647,2.267,2.2697,2.273,2.275,2.2775,2.28,2.2817,2.2847,2.2885,2.2891,2.2931,2.2961,2.3011,2.303,2.3064,2.3057,2.3069,2.3073,2.3076,2.308,2.3006,2.307,2.307,2.307,2.307,2.307,0,2.2699,2.2717,2.2746,2.2782,2.2809,2.2808,2.2837,2.286,2.2895,2.2922,2.2952,2.2997,2.3033,2.3058,2.3097,2.3119,2.3122,2.3129,2.3129,2.3134,2.3081,2.3071,2.3127,2.3127,2.3127,2.3127,2.3127,2.3127,2.2728,2.2769,2.278,2.2832,2.2851,2.289,2.2907,2.2932,2.2954,2.3003,2.3034,2.305,2.3078,2.3119,2.3155,2.3162,2.3177,2.3185,2.3192,2.3143,2.3137,2.3131,2.3122,2.3188,2.3188,2.3243,2.3244,2.3244]},{"header":{"parameterUnit":"m.s-1","parameterCategory":1,"la1":30.2991,"la2":30.254,"lo1":-89.0895,"lo2":-89.0444,"dy":0.0017,"dx":0.0017,"nx":28,"ny":28,"refTime":"2024-05-15T09:00:00:Z","depth":0,"parameterNumber":3,"parameterNumberName":"V-component_of_WINDS"},"data":[0,0,0,0,0,0,0,0,0,0,0,0,0,0,0,0,0,0,0,0,0,0,0,0,0,0,0,0,0,0,0,0,0,0,0,0,0,0,0,0,0,0,0,0,0,0,0,0,0,0,0,0,0,0,0,0,0,0,-0.4015,-0.4012,0,-0.3724,-0.372,-0.3717,-0.3696,-0.3699,-0.3702,-0.3705,-0.3398,-0.3387,-0.3376,0,0,0,0,0,0,0,0,0,0,0,0,0,-0.4546,-0.4537,-0.4016,-0.4012,-0.4008,-0.3724,-0.372,-0.3716,-0.3695,-0.3699,-0.3703,-0.3707,-0.3401,-0.3388,-0.3375,0,0,0,0,0,0,0,0,0,0,0,0,0,-0.4291,-0.4534,-0.4016,-0.3964,-0.3956,-0.3725,-0.372,-0.3715,-0.3694,-0.3699,-0.3704,-0.3708,-0.3406,-0.339,-0.3373,-0.3172,0,0,-0.3322,-0.3314,0,0,0,0,0,0,0,0,-0.4306,-0.4272,-0.3975,-0.3967,-0.3958,-0.3751,-0.3795,-0.3533,-0.3693,-0.3793,-0.3705,-0.3711,-0.3511,-0.3486,-0.342,-0.3157,-0.3144,-0.332,-0.331,-0.3303,-0.3298,0,0,0,0,0,0,0,-0.4323,-0.4284,-0.39,-0.3971,-0.396,-0.3952,-0.3921,-0.3745,-0.3628,-0.3785,-0.3783,-0.3749,-0.3507,-0.3436,-0.3413,-0.314,-0.3321,-0.3306,-0.3295,-0.3289,-0.2697,-0.2691,0,0,0,0,0,0,-0.4352,-0.4299,-0.3909,-0.3891,-0.4148,-0.3939,-0.3904,-0.3812,-0.363,-0.3607,-0.3745,-0.3749,-0.3463,-0.3432,-0.3402,-0.3154,-0.3303,-0.3287,-0.3277,-0.2702,-0.2695,-0.2689,0,0,0,0,0,0,-0.4364,-0.4318,-0.3921,-0.4094,-0.4043,-0.3924,-0.3822,-0.3804,-0.3733,-0.36,-0.3578,-0.3695,-0.3465,-0.3425,-0.323,-0.3143,-0.3279,-0.3264,-0.2709,-0.27,-0.2692,-0.2656,0,0,0,0,0,0,-0.4379,-0.4322,-0.4246,-0.4093,-0.4034,-0.3756,-0.3816,-0.3795,-0.3706,-0.3708,-0.3547,-0.3525,-0.3466,-0.3255,-0.3213,-0.3122,-0.3251,-0.2716,-0.2705,-0.2695,-0.2665,-0.2648,-0.2633,0,0,0,0,0,-0.4398,-0.4246,-0.4242,-0.4195,-0.3937,-0.3751,-0.3717,-0.3655,-0.3699,-0.362,-0.3534,-0.353,-0.316,-0.3235,-0.3187,-0.309,-0.2721,-0.2708,-0.2696,-0.2672,-0.2651,-0.2633,0,0,0,0,0,0,-0.4388,-0.4225,-0.4219,-0.4013,-0.3897,-0.3748,-0.3646,-0.3635,-0.3501,-0.3508,-0.3434,-0.3398,-0.3204,-0.3128,-0.3215,-0.2886,-0.2945,-0.2922,-0.2943,-0.2922,-0.2906,-0.2928,-0.3237,0,0,0,0,0,-0.4363,-0.4228,-0.4091,-0.3922,-0.3864,-0.3766,-0.3682,-0.3645,-0.352,-0.3469,-0.3369,-0.3246,-0.3101,-0.3008,-0.2867,-0.2654,-0.2618,-0.2564,-0.2548,-0.2536,-0.2516,-0.2397,-0.2371,-0.2647,-0.2648,-0.2648,0,0,-0.4307,-0.4201,-0.412,-0.3918,-0.3823,-0.3682,-0.3724,-0.3573,-0.3468,-0.3445,-0.3255,-0.3177,-0.3034,-0.2829,-0.2733,-0.2759,-0.2432,-0.252,-0.2511,-0.2498,-0.2381,-0.2355,-0.2332,-0.2639,-0.264,-0.2642,0,0,-0.4134,-0.4042,-0.3891,-0.3796,-0.3653,-0.3588,-0.3553,-0.3405,-0.3354,-0.3162,-0.3143,-0.3015,-0.2768,-0.2667,-0.2583,-0.2374,-0.2364,-0.233,-0.2247,-0.2132,-0.211,-0.209,-0.2014,-0.1988,-0.2312,-0.2312,-0.2311,0,-0.4082,-0.3873,-0.3814,-0.3664,-0.3575,-0.3552,-0.3397,-0.3307,-0.3124,-0.3062,-0.3095,-0.2785,-0.2687,-0.2458,-0.2407,-0.234,-0.2295,-0.2347,-0.2118,-0.2098,-0.2078,-0.2005,-0.1977,-0.2308,-0.2309,-0.2309,-0.2309,0,-0.3815,-0.367,-0.3565,-0.3393,-0.3292,-0.314,-0.3056,-0.2961,-0.2933,-0.2864,-0.2669,-0.2551,-0.2387,-0.233,-0.23,-0.2095,-0.2116,-0.2134,-0.2192,-0.205,-0.198,-0.1951,-0.2304,-0.2305,-0.2306,-0.2307,0,0,-0.3626,-0.3425,-0.3387,-0.3309,-0.3151,-0.3035,-0.2882,-0.2725,-0.2644,-0.2519,-0.2387,-0.218,-0.2196,-0.2101,-0.2059,-0.1958,-0.1799,-0.1988,-0.1984,-0.1956,-0.1566,-0.1552,-0.1521,-0.1793,-0.1787,-0.1783,-0.1577,0,-0.3434,-0.3165,-0.3108,-0.2873,-0.2737,-0.2714,-0.258,-0.2467,-0.24,-0.2273,-0.2197,-0.2051,-0.2084,-0.2026,-0.1926,-0.184,-0.1719,-0.1854,-0.1667,-0.1661,-0.1702,-0.1484,-0.1469,-0.1281,-0.155,-0.1545,-0.1541,0,-0.3174,-0.3047,-0.28,-0.266,-0.2601,-0.2482,-0.2333,-0.2213,-0.2084,-0.2041,-0.1937,-0.1906,-0.1743,-0.1811,-0.1585,-0.1678,-0.1598,-0.1545,-0.1536,-0.1514,-0.1592,-0.1455,-0.1219,-0.1191,-0.1498,-0.1501,-0.1504,0,-0.306,-0.2826,-0.2648,-0.2582,-0.2414,-0.2331,-0.2257,-0.2133,-0.2042,-0.1911,-0.1851,-0.1702,-0.162,-0.1504,-0.1433,-0.1489,-0.1212,-0.1274,-0.117,-0.1172,-0.1111,-0.1116,-0.0858,-0.1063,-0.1063,-0.1064,-0.1065,0,-0.2851,-0.27,-0.2594,-0.2485,-0.2315,-0.225,-0.2083,-0.2009,-0.1899,-0.1772,-0.1743,-0.1624,-0.1539,-0.1408,-0.1351,-0.1172,-0.1135,-0.1095,-0.1081,-0.1096,-0.1102,-0.1042,-0.1052,-0.1056,-0.1058,-0.1059,-0.1061,0,-0.2693,-0.2616,-0.2421,-0.228,-0.2241,-0.2121,-0.1999,-0.189,-0.1824,-0.1664,-0.1623,-0.1516,-0.136,-0.1279,-0.1084,-0.1046,-0.0844,-0.0839,-0.0889,-0.0883,-0.0784,-0.0794,-0.0476,-0.0431,-0.0668,-0.0666,-0.0664,0,-0.2564,-0.2448,-0.2295,-0.221,-0.2136,-0.1998,-0.1906,-0.1838,-0.1743,-0.1588,-0.1497,-0.1341,-0.1212,-0.0964,-0.0867,-0.0718,-0.0708,-0.0607,-0.0685,-0.0704,-0.0704,-0.0712,-0.0699,-0.0593,-0.059,-0.0589,-0.0587,0,-0.2342,-0.2311,-0.2181,-0.2038,-0.1929,-0.1812,-0.1696,-0.1628,-0.154,-0.1434,-0.1277,-0.1177,-0.098,-0.0824,-0.0667,-0.0588,-0.0571,-0.0564,-0.0532,-0.0545,-0.0579,-0.0558,-0.085,-0.0571,-0.0572,-0.0574,-0.0575,-0.0575,-0.2194,-0.209,-0.1967,-0.1823,-0.173,-0.1622,-0.1514,-0.1434,-0.1303,-0.1138,-0.1106,-0.0938,-0.0811,-0.06,-0.0517,-0.0383,-0.0404,-0.0357,-0.0345,-0.0335,-0.033,-0.0602,-0.0354,-0.0355,-0.0355,-0.0355,-0.0356,0,-0.197,-0.1891,-0.1759,-0.16,-0.1486,-0.1485,-0.1357,-0.1261,-0.1115,-0.1,-0.0875,-0.0693,-0.0543,-0.0435,-0.0281,-0.0195,-0.0184,-0.0157,-0.0161,-0.0143,-0.0321,-0.0363,-0.0169,-0.0169,-0.0169,-0.0169,-0.0169,-0.0169,-0.184,-0.1664,-0.1618,-0.1395,-0.1315,-0.1154,-0.1081,-0.0981,-0.0889,-0.0689,-0.0565,-0.0497,-0.0384,-0.0222,-0.0083,-0.0055,0.0001,0.0028,0.0056,-0.0111,-0.0131,-0.015,-0.0189,0.0039,0.0039,0.0223,0.0225,0.0226]}]]